Home > Weather > Mainz > Past weeks

Flag for Germany Weather for the Past 2 Weeks in Mainz, Rhineland-Palatinate, Germany

Now
32 °F

Clear.


Feels Like: 32 °F
Forecast: 40 / 51 °F
Wind: No wind

Location: Wiesbaden Airport

Current Time: Apr 29, 2016 at 4:14:22 AM

Latest Report: Apr 29, 2016 at 2:58 AM


Visibility: N/A

Pressure: 30.05 "Hg

Humidity: 93%

Dew Point: 30 °F

Location of MainzLocation

Historic Weather in Mainz — Graph

°F

Mainz Temperature Yesterday

Maximum temperature yesterday: 52 °F (at 3:58 PM)
Minimum temperature yesterday: 32 °F (at 4:58 AM)
Average temperature yesterday: 42 °F

High & Low Weather Summary for the Past Weeks

 TemperatureHumidityPressure
High67 °F (Apr 21, 5:58 PM)100% (Apr 16, 7:58 AM)30.46 "Hg (Apr 16, 7:58 AM)
Low31 °F (Apr 24, 6:58 AM)27% (Apr 20, 3:58 PM)29.58 "Hg (Apr 26, 1:03 AM)
Average47 °F66%29.95 "Hg
* Reported Apr 14 1:58 AM — Apr 29 1:58 AM, Mainz, Weather by CustomWeather, © 2016

Note: Actual official high and low records may vary slightly from our data, if they occured in-between our weather recording intervals... More about our weather records

Advertising

Mainz Weather History for the Previous 24 Hours

Scroll right to see more
 ConditionsComfort  
Time TempWeatherWind HumidityBarometerVisibility
1:58 AM
Fri, Apr 29
34 °FClear.No wind87%30.06 "HgN/A
12:58 AM35 °FClear.2 mph84%30.05 "HgN/A
11:58 PM
Thu, Apr 28
36 °FClear.2 mph85%30.05 "HgN/A
10:58 PM41 °FClear.2 mph70%30.04 "HgN/A
9:58 PM42 °FClear.3 mph66%30.04 "HgN/A
8:58 PM44 °FSunny.7 mph56%30.02 "HgN/A
7:58 PM48 °FPartly sunny.9 mph47%30.01 "HgN/A
6:58 PM52 °FPartly sunny.6 mph35%30.01 "HgN/A
5:58 PM52 °FScattered clouds.12 mph38%30.00 "HgN/A
4:58 PM52 °FPassing clouds.12 mph41%29.99 "HgN/A
3:58 PM52 °FPartly sunny.12 mph36%29.99 "HgN/A
2:58 PM49 °FPartly sunny.7 mph40%30.00 "HgN/A
1:58 PM50 °FPartly sunny.12 mph47%30.00 "HgN/A
12:58 PM48 °FOvercast.6 mph50%30.01 "HgN/A
11:58 AM47 °FCloudy.6 mph56%30.01 "HgN/A
10:58 AM45 °FBroken clouds.3 mph64%30.01 "HgN/A
9:58 AM42 °FSunny.No wind74%30.01 "HgN/A
8:58 AM39 °FPassing clouds.5 mph81%30.00 "HgN/A
7:58 AM35 °FScattered clouds.3 mph91%29.99 "HgN/A
6:58 AM32 °FClear.No wind92%29.98 "HgN/A
5:58 AM32 °FClear.No wind93%29.96 "HgN/A
4:58 AM32 °FClear.1 mph93%29.95 "HgN/A
Weather by CustomWeather, © 2016

See weather overviewHow to use our weather pages